Year,Month,Day,Hour,Minute,Value (Times are PST for temperature in C)
2013,04,16,00,00,3.50
2013,04,16,00,01,3.50
2013,04,16,00,02,3.50
2013,04,16,00,03,3.50
2013,04,16,00,04,3.40
2013,04,16,00,05,3.40
2013,04,16,00,06,3.40
2013,04,16,00,07,3.40
2013,04,16,00,08,3.40
2013,04,16,00,09,3.40
2013,04,16,00,10,3.40
2013,04,16,00,11,3.40
2013,04,16,00,12,3.40
2013,04,16,00,13,3.40
2013,04,16,00,18,3.30
2013,04,16,00,19,3.30
2013,04,16,00,20,3.30
2013,04,16,00,21,3.30
2013,04,16,00,22,3.30
2013,04,16,00,23,3.30
2013,04,16,00,24,3.30
2013,04,16,00,25,3.30
2013,04,16,00,26,3.30
2013,04,16,00,27,3.30
2013,04,16,00,28,3.30
2013,04,16,00,29,3.30
2013,04,16,00,30,3.30
2013,04,16,00,31,3.30
2013,04,16,00,32,3.20
2013,04,16,00,33,3.20
2013,04,16,00,34,3.20
2013,04,16,00,35,3.20
2013,04,16,00,36,3.20
2013,04,16,00,37,3.20
2013,04,16,00,38,3.20
2013,04,16,00,39,3.20
2013,04,16,00,40,3.20
2013,04,16,00,41,3.20
2013,04,16,00,42,3.20
2013,04,16,00,43,3.20
2013,04,16,00,44,3.20
2013,04,16,00,45,3.20
2013,04,16,00,46,3.20
2013,04,16,00,47,3.20
2013,04,16,00,48,3.20
2013,04,16,00,49,3.20
2013,04,16,00,50,3.20
2013,04,16,00,51,3.20
2013,04,16,00,52,3.20
2013,04,16,00,53,3.20
2013,04,16,00,54,3.20
2013,04,16,00,55,3.20
2013,04,16,00,56,3.20
2013,04,16,00,57,3.20
2013,04,16,00,58,3.20
2013,04,16,00,59,3.20
2013,04,16,01,00,3.20
2013,04,16,01,01,3.20
2013,04,16,01,02,3.20
2013,04,16,01,03,3.20
2013,04,16,01,04,3.10
2013,04,16,01,05,3.10
2013,04,16,01,06,3.10
2013,04,16,01,07,3.10
2013,04,16,01,08,3.10
2013,04,16,01,09,3.10
2013,04,16,01,10,3.10
2013,04,16,01,11,3.00
2013,04,16,01,12,3.00
2013,04,16,01,13,3.00
2013,04,16,01,14,3.00
2013,04,16,01,15,2.90
2013,04,16,01,16,2.90
2013,04,16,01,17,2.90
2013,04,16,01,18,2.90
2013,04,16,01,19,2.90
2013,04,16,01,20,2.80
2013,04,16,01,21,2.80
2013,04,16,01,22,2.80
2013,04,16,01,23,2.80
2013,04,16,01,24,2.80
2013,04,16,01,25,2.80
2013,04,16,01,26,2.70
2013,04,16,01,27,2.70
2013,04,16,01,28,2.70
2013,04,16,01,29,2.70
2013,04,16,01,30,2.70
2013,04,16,01,31,2.70
2013,04,16,01,32,2.70
2013,04,16,01,33,2.70
2013,04,16,01,34,2.70
2013,04,16,01,35,2.70
2013,04,16,01,36,2.70
2013,04,16,01,37,2.70
2013,04,16,01,38,2.70
2013,04,16,01,39,2.60
2013,04,16,01,40,2.60
2013,04,16,01,41,2.60
2013,04,16,01,42,2.60
2013,04,16,01,43,2.60
2013,04,16,01,44,2.60
2013,04,16,01,45,2.60
2013,04,16,01,46,2.60
2013,04,16,01,47,2.60
2013,04,16,01,48,2.60
2013,04,16,01,49,2.60
2013,04,16,01,50,2.60
2013,04,16,01,51,2.60
2013,04,16,01,52,2.60
2013,04,16,01,53,2.60
2013,04,16,01,54,2.60
2013,04,16,01,55,2.60
2013,04,16,01,56,2.60
2013,04,16,01,57,2.60
2013,04,16,01,58,2.60
2013,04,16,01,59,2.50
2013,04,16,02,00,2.50
2013,04,16,02,01,2.50
2013,04,16,02,02,2.50
2013,04,16,02,03,2.50
2013,04,16,02,04,2.50
2013,04,16,02,05,2.40
2013,04,16,02,06,2.40
2013,04,16,02,07,2.40
2013,04,16,02,08,2.40
2013,04,16,02,09,2.40
2013,04,16,02,10,2.40
2013,04,16,02,11,2.40
2013,04,16,02,12,2.30
2013,04,16,02,13,2.30
2013,04,16,02,14,2.30
2013,04,16,02,15,2.30
2013,04,16,02,16,2.30
2013,04,16,02,17,2.30
2013,04,16,02,18,2.30
2013,04,16,02,19,2.30
2013,04,16,02,20,2.30
2013,04,16,02,21,2.30
2013,04,16,02,22,2.30
2013,04,16,02,23,2.30
2013,04,16,02,24,2.30
2013,04,16,02,25,2.40
2013,04,16,02,26,2.40
2013,04,16,02,27,2.40
2013,04,16,02,28,2.40
2013,04,16,02,29,2.30
2013,04,16,02,30,2.30
2013,04,16,02,31,2.30
2013,04,16,02,32,2.30
2013,04,16,02,33,2.30
2013,04,16,02,34,2.30
2013,04,16,02,35,2.30
2013,04,16,02,36,2.20
2013,04,16,02,37,2.20
2013,04,16,02,38,2.20
2013,04,16,02,39,2.20
2013,04,16,02,40,2.20
2013,04,16,02,41,2.20
2013,04,16,02,42,2.10
2013,04,16,02,43,2.10
2013,04,16,02,44,2.10
2013,04,16,02,45,2.10
2013,04,16,02,46,2.10
2013,04,16,02,47,2.10
2013,04,16,02,48,2.10
2013,04,16,02,49,2.10
2013,04,16,02,50,2.00
2013,04,16,02,51,2.00
2013,04,16,02,52,2.00
2013,04,16,02,53,2.00
2013,04,16,02,54,2.00
2013,04,16,02,55,2.00
2013,04,16,02,56,2.00
2013,04,16,02,57,2.00
2013,04,16,02,58,2.00
2013,04,16,02,59,2.00
2013,04,16,03,00,2.00
2013,04,16,03,01,2.10
2013,04,16,03,02,2.10
2013,04,16,03,03,2.10
2013,04,16,03,04,2.10
2013,04,16,03,05,2.10
2013,04,16,03,06,2.10
2013,04,16,03,07,2.10
2013,04,16,03,08,2.10
2013,04,16,03,09,2.10
2013,04,16,03,10,2.10
2013,04,16,03,11,2.10
2013,04,16,03,12,2.10
2013,04,16,03,13,2.00
2013,04,16,03,14,2.00
2013,04,16,03,15,2.00
2013,04,16,03,16,1.90
2013,04,16,03,17,1.90
2013,04,16,03,18,1.90
2013,04,16,03,19,1.90
2013,04,16,03,20,1.90
2013,04,16,03,21,1.90
2013,04,16,03,22,1.90
2013,04,16,03,23,1.90
2013,04,16,03,24,1.90
2013,04,16,03,25,1.90
2013,04,16,03,26,1.90
2013,04,16,03,27,1.90
2013,04,16,03,28,1.90
2013,04,16,03,29,1.80
2013,04,16,03,30,1.80
2013,04,16,03,31,1.80
2013,04,16,03,32,1.80
2013,04,16,03,33,1.80
2013,04,16,03,34,1.80
2013,04,16,03,35,1.80
2013,04,16,03,36,1.80
2013,04,16,03,37,1.70
2013,04,16,03,38,1.70
2013,04,16,03,39,1.70
2013,04,16,03,40,1.70
2013,04,16,03,41,1.70
2013,04,16,03,42,1.70
2013,04,16,03,43,1.60
2013,04,16,03,44,1.60
2013,04,16,03,45,1.60
2013,04,16,03,46,1.60
2013,04,16,03,47,1.60
2013,04,16,03,48,1.60
2013,04,16,03,49,1.60
2013,04,16,03,50,1.50
2013,04,16,03,51,1.50
2013,04,16,03,52,1.50
2013,04,16,03,53,1.40
2013,04,16,03,54,1.40
2013,04,16,03,55,1.40
2013,04,16,03,56,1.40
2013,04,16,03,57,1.40
2013,04,16,03,58,1.40
2013,04,16,03,59,1.40
2013,04,16,04,00,1.40
2013,04,16,04,01,1.40
2013,04,16,04,02,1.40
2013,04,16,04,03,1.30
2013,04,16,04,04,1.30
2013,04,16,04,05,1.30
2013,04,16,04,06,1.30
2013,04,16,04,07,1.30
2013,04,16,04,08,1.30
2013,04,16,04,09,1.30
2013,04,16,04,10,1.30
2013,04,16,04,11,1.30
2013,04,16,04,12,1.30
2013,04,16,04,13,1.30
2013,04,16,04,14,1.30
2013,04,16,04,15,1.30
2013,04,16,04,16,1.30
2013,04,16,04,17,1.30
2013,04,16,04,18,1.30
2013,04,16,04,19,1.30
2013,04,16,04,20,1.30
2013,04,16,04,21,1.30
2013,04,16,04,22,1.30
2013,04,16,04,23,1.30
2013,04,16,04,24,1.30
2013,04,16,04,25,1.30
2013,04,16,04,26,1.30
2013,04,16,04,27,1.30
2013,04,16,04,28,1.30
2013,04,16,04,29,1.30
2013,04,16,04,30,1.30
2013,04,16,04,31,1.20
2013,04,16,04,32,1.20
2013,04,16,04,33,1.20
2013,04,16,04,34,1.20
2013,04,16,04,35,1.20
2013,04,16,04,36,1.20
2013,04,16,04,37,1.20
2013,04,16,04,38,1.20
2013,04,16,04,39,1.10
2013,04,16,04,40,1.10
2013,04,16,04,41,1.10
2013,04,16,04,42,1.10
2013,04,16,04,43,1.00
2013,04,16,04,44,1.00
2013,04,16,04,45,1.00
2013,04,16,04,46,1.00
2013,04,16,04,47,1.00
2013,04,16,04,48,1.00
2013,04,16,04,49,0.90
2013,04,16,04,50,0.90
2013,04,16,04,51,0.90
2013,04,16,04,52,0.90
2013,04,16,04,53,0.80
2013,04,16,04,54,0.80
2013,04,16,04,55,0.80
2013,04,16,04,56,0.80
2013,04,16,04,57,0.80
2013,04,16,04,58,0.70
2013,04,16,04,59,0.70
2013,04,16,05,00,0.70
2013,04,16,05,01,0.70
2013,04,16,05,02,0.70
2013,04,16,05,03,0.70
2013,04,16,05,04,0.70
2013,04,16,05,05,0.70
2013,04,16,05,06,0.70
2013,04,16,05,07,0.70
2013,04,16,05,08,0.70
2013,04,16,05,09,0.70
2013,04,16,05,10,0.70
2013,04,16,05,11,0.70
2013,04,16,05,12,0.70
2013,04,16,05,13,0.70
2013,04,16,05,14,0.70
2013,04,16,05,15,0.70
2013,04,16,05,16,0.70
2013,04,16,05,17,0.60
2013,04,16,05,18,0.60
2013,04,16,05,19,0.60
2013,04,16,05,20,0.60
2013,04,16,05,21,0.60
2013,04,16,05,22,0.50
2013,04,16,05,23,0.50
2013,04,16,05,24,0.50
2013,04,16,05,25,0.50
2013,04,16,05,26,0.50
2013,04,16,05,27,0.50
2013,04,16,05,28,0.40
2013,04,16,05,29,0.40
2013,04,16,05,30,0.40
2013,04,16,05,31,0.40
2013,04,16,05,32,0.40
2013,04,16,05,33,0.40
2013,04,16,05,34,0.40
2013,04,16,05,35,0.40
2013,04,16,05,36,0.40
2013,04,16,05,37,0.40
2013,04,16,05,38,0.40
2013,04,16,05,39,0.40
2013,04,16,05,40,0.40
2013,04,16,05,41,0.40
2013,04,16,05,42,0.40
2013,04,16,05,43,0.40
2013,04,16,05,44,0.40
2013,04,16,05,45,0.40
2013,04,16,05,46,0.40
2013,04,16,05,47,0.40
2013,04,16,05,48,0.40
2013,04,16,05,49,0.40
2013,04,16,05,50,0.40
2013,04,16,05,51,0.40
2013,04,16,05,52,0.40
2013,04,16,05,53,0.40
2013,04,16,05,54,0.40
2013,04,16,05,55,0.30
2013,04,16,05,56,0.30
2013,04,16,05,57,0.30
2013,04,16,05,58,0.30
2013,04,16,05,59,0.30
2013,04,16,06,00,0.30
2013,04,16,06,01,0.30
2013,04,16,06,02,0.30
2013,04,16,06,03,0.30
2013,04,16,06,04,0.30
2013,04,16,06,05,0.30
2013,04,16,06,06,0.20
2013,04,16,06,07,0.20
2013,04,16,06,08,0.20
2013,04,16,06,09,0.20
2013,04,16,06,10,0.20
2013,04,16,06,11,0.20
2013,04,16,06,12,0.20
2013,04,16,06,13,0.10
2013,04,16,06,14,0.10
2013,04,16,06,15,0.10
2013,04,16,06,16,0.10
2013,04,16,06,17,0.10
2013,04,16,06,18,0.10
2013,04,16,06,19,0.10
2013,04,16,06,20,0.10
2013,04,16,06,21,0.10
2013,04,16,06,22,0.10
2013,04,16,06,23,0.10
2013,04,16,06,24,0.10
2013,04,16,06,25,0.10
2013,04,16,06,26,0.10
2013,04,16,06,27,0.10
2013,04,16,06,28,0.20
2013,04,16,06,29,0.20
2013,04,16,06,30,0.20
2013,04,16,06,31,0.20
2013,04,16,06,32,0.10
2013,04,16,06,33,0.20
2013,04,16,06,34,0.10
2013,04,16,06,35,0.10
2013,04,16,06,36,0.10
2013,04,16,06,37,0.10
2013,04,16,06,38,0.10
2013,04,16,06,39,0.10
2013,04,16,06,40,0.10
2013,04,16,06,41,0.10
2013,04,16,06,42,0.10
2013,04,16,06,43,0.10
2013,04,16,06,44,0.10
2013,04,16,06,45,0.10
2013,04,16,06,46,0.10
2013,04,16,06,47,0.10
2013,04,16,06,48,0.10
2013,04,16,06,49,0.10
2013,04,16,06,50,0.10
2013,04,16,06,51,0.10
2013,04,16,06,52,0.10
2013,04,16,06,53,0.10
2013,04,16,06,54,0.20
2013,04,16,06,55,0.20
2013,04,16,06,56,0.20
2013,04,16,06,57,0.20
2013,04,16,06,58,0.20
2013,04,16,06,59,0.20
2013,04,16,07,00,0.20
2013,04,16,07,01,0.20
2013,04,16,07,02,0.20
2013,04,16,07,03,0.20
2013,04,16,07,04,0.20
2013,04,16,07,05,0.20
2013,04,16,07,06,0.20
2013,04,16,07,07,0.20
2013,04,16,07,08,0.20
2013,04,16,07,09,0.20
2013,04,16,07,10,0.20
2013,04,16,07,11,0.30
2013,04,16,07,12,0.30
2013,04,16,07,13,0.30
2013,04,16,07,14,0.40
2013,04,16,07,15,0.40
2013,04,16,07,16,0.50
2013,04,16,07,17,0.50
2013,04,16,07,18,0.60
2013,04,16,07,19,0.70
2013,04,16,07,20,0.70
2013,04,16,07,21,0.80
2013,04,16,07,22,0.90
2013,04,16,07,23,1.10
2013,04,16,07,24,1.20
2013,04,16,07,25,1.30
2013,04,16,07,26,1.30
2013,04,16,07,27,1.50
2013,04,16,07,28,1.60
2013,04,16,07,29,1.70
2013,04,16,07,30,1.80
2013,04,16,07,31,1.90
2013,04,16,07,32,2.00
2013,04,16,07,33,2.10
2013,04,16,07,34,2.10
2013,04,16,07,35,2.20
2013,04,16,07,36,2.20
2013,04,16,07,37,2.30
2013,04,16,07,38,2.30
2013,04,16,07,39,2.30
2013,04,16,07,40,2.40
2013,04,16,07,41,2.40
2013,04,16,07,42,2.40
2013,04,16,07,43,2.50
2013,04,16,07,44,2.50
2013,04,16,07,45,2.50
2013,04,16,07,46,2.60
2013,04,16,07,47,2.60
2013,04,16,07,48,2.70
2013,04,16,07,49,2.70
2013,04,16,07,50,2.70
2013,04,16,07,51,2.80
2013,04,16,07,52,2.90
2013,04,16,07,53,3.00
2013,04,16,07,54,3.20
2013,04,16,07,55,3.30
2013,04,16,07,56,3.30
2013,04,16,07,57,3.40
2013,04,16,07,58,3.50
2013,04,16,07,59,3.70
2013,04,16,08,00,3.80
2013,04,16,08,01,3.80
2013,04,16,08,02,3.80
2013,04,16,08,03,3.90
2013,04,16,08,04,3.90
2013,04,16,08,05,4.00
2013,04,16,08,06,4.00
2013,04,16,08,07,4.10
2013,04,16,08,08,4.20
2013,04,16,08,09,4.30
2013,04,16,08,10,4.40
2013,04,16,08,11,4.50
2013,04,16,08,12,4.70
2013,04,16,08,13,4.80
2013,04,16,08,14,4.90
2013,04,16,08,15,5.00
2013,04,16,08,16,5.10
2013,04,16,08,17,5.10
2013,04,16,08,18,5.20
2013,04,16,08,19,5.20
2013,04,16,08,20,5.30
2013,04,16,08,21,5.30
2013,04,16,08,22,5.30
2013,04,16,08,23,5.30
2013,04,16,08,24,5.40
2013,04,16,08,25,5.40
2013,04,16,08,26,5.40
2013,04,16,08,27,5.40
2013,04,16,08,28,5.50
2013,04,16,08,29,5.60
2013,04,16,08,30,5.60
2013,04,16,08,31,5.70
2013,04,16,08,32,5.70
2013,04,16,08,33,5.80
2013,04,16,08,34,5.80
2013,04,16,08,35,5.80
2013,04,16,08,36,5.90
2013,04,16,08,37,6.00
2013,04,16,08,38,6.10
2013,04,16,08,39,6.20
2013,04,16,08,40,6.20
2013,04,16,08,41,6.20
2013,04,16,08,42,6.30
2013,04,16,08,43,6.30
2013,04,16,08,44,6.30
2013,04,16,08,45,6.40
2013,04,16,08,46,6.40
2013,04,16,08,47,6.40
2013,04,16,08,48,6.40
2013,04,16,08,49,6.50
2013,04,16,08,50,6.60
2013,04,16,08,51,6.60
2013,04,16,08,52,6.70
2013,04,16,08,53,6.80
2013,04,16,08,54,6.90
2013,04,16,08,55,7.00
2013,04,16,08,56,7.10
2013,04,16,08,57,7.20
2013,04,16,08,58,7.20
2013,04,16,08,59,7.30
2013,04,16,09,00,7.40
2013,04,16,09,01,7.50
2013,04,16,09,02,7.60
2013,04,16,09,03,7.70
2013,04,16,09,04,7.80
2013,04,16,09,05,7.90
2013,04,16,09,06,8.00
2013,04,16,09,07,8.10
2013,04,16,09,08,8.20
2013,04,16,09,09,8.20
2013,04,16,09,10,8.30
2013,04,16,09,11,8.40
2013,04,16,09,12,8.50
2013,04,16,09,13,8.50
2013,04,16,09,14,8.70
2013,04,16,09,15,8.70
2013,04,16,09,16,8.80
2013,04,16,09,17,8.90
2013,04,16,09,18,9.00
2013,04,16,09,19,9.00
2013,04,16,09,20,9.10
2013,04,16,09,21,9.20
2013,04,16,09,22,9.30
2013,04,16,09,23,9.30
2013,04,16,09,24,9.40
2013,04,16,09,25,9.50
2013,04,16,09,26,9.50
2013,04,16,09,27,9.60
2013,04,16,09,28,9.60
2013,04,16,09,29,9.70
2013,04,16,09,30,9.80
2013,04,16,09,31,9.80
2013,04,16,09,32,9.80
2013,04,16,09,33,9.90
2013,04,16,09,34,9.90
2013,04,16,09,35,10.00
2013,04,16,09,36,10.10
2013,04,16,09,37,10.10
2013,04,16,09,38,10.10
2013,04,16,09,39,10.20
2013,04,16,09,40,10.20
2013,04,16,09,41,10.20
2013,04,16,09,42,10.20
2013,04,16,09,43,10.20
2013,04,16,09,44,10.20
2013,04,16,09,45,10.30
2013,04,16,09,46,10.30
2013,04,16,09,47,10.30
2013,04,16,09,48,10.30
2013,04,16,09,49,10.40
2013,04,16,09,50,10.40
2013,04,16,09,51,10.40
2013,04,16,09,52,10.40
2013,04,16,09,53,10.50
2013,04,16,09,54,10.50
2013,04,16,09,55,10.60
2013,04,16,09,56,10.60
2013,04,16,09,57,10.60
2013,04,16,09,58,10.70
2013,04,16,09,59,10.70
2013,04,16,10,00,10.70
2013,04,16,10,01,10.80
2013,04,16,10,02,10.80
2013,04,16,10,03,10.80
2013,04,16,10,04,10.90
2013,04,16,10,05,11.00
2013,04,16,10,06,11.00
2013,04,16,10,07,11.10
2013,04,16,10,08,11.10
2013,04,16,10,09,11.10
2013,04,16,10,10,11.10
2013,04,16,10,11,11.10
2013,04,16,10,12,11.10
2013,04,16,10,13,11.10
2013,04,16,10,14,11.10
2013,04,16,10,15,11.10
2013,04,16,10,16,11.10
2013,04,16,10,17,11.10
2013,04,16,10,18,11.10
2013,04,16,10,19,11.10
2013,04,16,10,20,11.10
2013,04,16,10,21,11.10
2013,04,16,10,22,11.20
2013,04,16,10,23,11.20
2013,04,16,10,24,11.20
2013,04,16,10,25,11.20
2013,04,16,10,26,11.20
2013,04,16,10,27,11.20
2013,04,16,10,28,11.30
2013,04,16,10,29,11.40
2013,04,16,10,30,11.50
2013,04,16,10,31,11.60
2013,04,16,10,32,11.70
2013,04,16,10,33,11.80
2013,04,16,10,34,11.90
2013,04,16,10,35,12.00
2013,04,16,10,36,12.10
2013,04,16,10,37,12.10
2013,04,16,10,38,12.10
2013,04,16,10,39,12.20
2013,04,16,10,40,12.20
2013,04,16,10,41,12.20
2013,04,16,10,42,12.20
2013,04,16,10,43,12.20
2013,04,16,10,44,12.20
2013,04,16,10,45,12.20
2013,04,16,10,46,12.20
2013,04,16,10,47,12.10
2013,04,16,10,48,12.10
2013,04,16,10,49,12.10
2013,04,16,10,50,12.10
2013,04,16,10,51,12.00
2013,04,16,10,52,12.00
2013,04,16,10,53,12.00
2013,04,16,10,54,12.10
2013,04,16,10,55,12.10
2013,04,16,10,56,12.20
2013,04,16,10,57,12.20
2013,04,16,10,58,12.20
2013,04,16,10,59,12.10
2013,04,16,11,00,12.10
2013,04,16,11,01,12.10
2013,04,16,11,02,12.10
2013,04,16,11,03,12.10
2013,04,16,11,04,12.20
2013,04,16,11,05,12.10
2013,04,16,11,06,12.10
2013,04,16,11,07,12.10
2013,04,16,11,08,12.10
2013,04,16,11,09,12.10
2013,04,16,11,10,12.10
2013,04,16,11,11,12.20
2013,04,16,11,12,12.20
2013,04,16,11,13,12.20
2013,04,16,11,14,12.20
2013,04,16,11,15,12.20
2013,04,16,11,16,12.20
2013,04,16,11,17,12.20
2013,04,16,11,18,12.20
2013,04,16,11,19,12.20
2013,04,16,11,20,12.30
2013,04,16,11,21,12.30
2013,04,16,11,22,12.40
2013,04,16,11,23,12.40
2013,04,16,11,24,12.40
2013,04,16,11,25,12.50
2013,04,16,11,26,12.60
2013,04,16,11,27,12.70
2013,04,16,11,28,12.80
2013,04,16,11,29,12.80
2013,04,16,11,30,12.90
2013,04,16,11,31,12.90
2013,04,16,11,32,12.80
2013,04,16,11,33,12.70
2013,04,16,11,34,12.70
2013,04,16,11,35,12.70
2013,04,16,11,36,12.70
2013,04,16,11,37,12.80
2013,04,16,11,38,12.90
2013,04,16,11,39,12.90
2013,04,16,11,40,12.90
2013,04,16,11,41,12.90
2013,04,16,11,42,12.80
2013,04,16,11,43,12.50
2013,04,16,11,44,12.30
2013,04,16,11,45,12.20
2013,04,16,11,46,12.20
2013,04,16,11,47,12.20
2013,04,16,11,48,12.20
2013,04,16,11,49,12.20
2013,04,16,11,50,12.30
2013,04,16,11,51,12.40
2013,04,16,11,52,12.50
2013,04,16,11,53,12.70
2013,04,16,11,54,12.80
2013,04,16,11,55,12.90
2013,04,16,11,56,13.00
2013,04,16,11,57,13.10
2013,04,16,11,58,13.20
2013,04,16,11,59,13.20
2013,04,16,12,00,13.20
2013,04,16,12,01,13.20
2013,04,16,12,02,13.20
2013,04,16,12,03,13.20
2013,04,16,12,04,13.10
2013,04,16,12,05,13.10
2013,04,16,12,06,13.00
2013,04,16,12,07,12.90
2013,04,16,12,08,12.70
2013,04,16,12,09,12.60
2013,04,16,12,10,12.60
2013,04,16,12,11,12.70
2013,04,16,12,12,12.70
2013,04,16,12,13,12.80
2013,04,16,12,14,12.80
2013,04,16,12,15,12.80
2013,04,16,12,16,12.80
2013,04,16,12,17,12.80
2013,04,16,12,18,12.80
2013,04,16,12,19,12.80
2013,04,16,12,20,12.80
2013,04,16,12,21,12.70
2013,04,16,12,22,12.70
2013,04,16,12,23,12.70
2013,04,16,12,24,12.70
2013,04,16,12,25,12.80
2013,04,16,12,26,12.90
2013,04,16,12,27,12.90
2013,04,16,12,28,12.90
2013,04,16,12,29,12.90
2013,04,16,12,30,13.00
2013,04,16,12,31,13.00
2013,04,16,12,32,13.10
2013,04,16,12,33,13.10
2013,04,16,12,34,13.10
2013,04,16,12,35,12.90
2013,04,16,12,36,12.80
2013,04,16,12,37,12.80
2013,04,16,12,38,12.80
2013,04,16,12,39,12.90
2013,04,16,12,40,13.00
2013,04,16,12,41,13.10
2013,04,16,12,42,13.10
2013,04,16,12,43,13.10
2013,04,16,12,44,13.10
2013,04,16,12,45,13.10
2013,04,16,12,46,13.20
2013,04,16,12,47,13.20
2013,04,16,12,48,13.30
2013,04,16,12,49,13.20
2013,04,16,12,50,13.30
2013,04,16,12,51,13.30
2013,04,16,12,52,13.30
2013,04,16,12,53,13.30
2013,04,16,12,54,13.30
2013,04,16,12,55,13.30
2013,04,16,12,56,13.40
2013,04,16,12,57,13.50
2013,04,16,12,58,13.60
2013,04,16,12,59,13.60
2013,04,16,13,00,13.60
2013,04,16,13,01,13.70
2013,04,16,13,02,13.70
2013,04,16,13,03,13.60
2013,04,16,13,04,13.40
2013,04,16,13,05,13.50
2013,04,16,13,06,13.50
2013,04,16,13,07,13.30
2013,04,16,13,08,13.00
2013,04,16,13,09,12.90
2013,04,16,13,10,12.90
2013,04,16,13,11,13.00
2013,04,16,13,12,13.10
2013,04,16,13,13,13.10
2013,04,16,13,14,13.20
2013,04,16,13,15,13.30
2013,04,16,13,16,13.30
2013,04,16,13,17,13.40
2013,04,16,13,18,13.50
2013,04,16,13,19,13.60
2013,04,16,13,20,13.70
2013,04,16,13,21,13.50
2013,04,16,13,22,13.30
2013,04,16,13,23,13.30
2013,04,16,13,24,13.40
2013,04,16,13,25,13.40
2013,04,16,13,26,13.40
2013,04,16,13,27,13.40
2013,04,16,13,28,13.30
2013,04,16,13,29,13.10
2013,04,16,13,30,12.80
2013,04,16,13,31,12.70
2013,04,16,13,32,12.60
2013,04,16,13,33,12.60
2013,04,16,13,34,12.60
2013,04,16,13,35,12.70
2013,04,16,13,36,12.70
2013,04,16,13,37,12.90
2013,04,16,13,38,12.90
2013,04,16,13,39,13.00
2013,04,16,13,40,13.00
2013,04,16,13,41,13.10
2013,04,16,13,42,13.20
2013,04,16,13,43,13.30
2013,04,16,13,44,13.30
2013,04,16,13,45,13.20
2013,04,16,13,46,13.00
2013,04,16,13,47,12.80
2013,04,16,13,48,12.80
2013,04,16,13,49,12.70
2013,04,16,13,50,12.80
2013,04,16,13,51,12.70
2013,04,16,13,52,12.70
2013,04,16,13,53,12.70
2013,04,16,13,54,12.70
2013,04,16,13,55,12.80
2013,04,16,13,56,12.90
2013,04,16,13,57,13.00
2013,04,16,13,58,13.20
2013,04,16,13,59,13.30
2013,04,16,14,00,13.30
2013,04,16,14,01,13.30
2013,04,16,14,02,13.50
2013,04,16,14,03,13.60
2013,04,16,14,04,13.70
2013,04,16,14,05,13.70
2013,04,16,14,06,13.70
2013,04,16,14,07,13.70
2013,04,16,14,08,13.80
2013,04,16,14,09,13.80
2013,04,16,14,10,13.60
2013,04,16,14,11,13.50
2013,04,16,14,12,13.50
2013,04,16,14,13,13.60
2013,04,16,14,14,13.70
2013,04,16,14,15,13.80
2013,04,16,14,16,13.80
2013,04,16,14,17,13.80
2013,04,16,14,18,13.70
2013,04,16,14,19,13.70
2013,04,16,14,20,13.60
2013,04,16,14,21,13.60
2013,04,16,14,22,13.60
2013,04,16,14,23,13.60
2013,04,16,14,24,13.60
2013,04,16,14,25,13.50
2013,04,16,14,26,13.40
2013,04,16,14,27,13.30
2013,04,16,14,28,13.40
2013,04,16,14,29,13.40
2013,04,16,14,30,13.30
2013,04,16,14,31,13.20
2013,04,16,14,32,13.20
2013,04,16,14,33,13.20
2013,04,16,14,34,13.20
2013,04,16,14,35,13.20
2013,04,16,14,36,13.30
2013,04,16,14,37,13.40
2013,04,16,14,38,13.50
2013,04,16,14,39,13.60
2013,04,16,14,40,13.70
2013,04,16,14,41,13.70
2013,04,16,14,42,13.60
2013,04,16,14,43,13.60
2013,04,16,14,44,13.60
2013,04,16,14,45,13.60
2013,04,16,14,46,13.60
2013,04,16,14,47,13.70
2013,04,16,14,48,13.70
2013,04,16,14,49,13.60
2013,04,16,14,50,13.70
2013,04,16,14,51,13.60
2013,04,16,14,52,13.60
2013,04,16,14,53,13.60
2013,04,16,14,54,13.60
2013,04,16,14,55,13.70
2013,04,16,14,56,13.70
2013,04,16,14,57,13.80
2013,04,16,14,58,13.80
2013,04,16,14,59,13.80
2013,04,16,15,00,13.80
2013,04,16,15,01,13.80
2013,04,16,15,02,13.80
2013,04,16,15,03,13.70
2013,04,16,15,04,13.50
2013,04,16,15,05,13.40
2013,04,16,15,06,13.40
2013,04,16,15,07,13.40
2013,04,16,15,08,13.30
2013,04,16,15,09,13.30
2013,04,16,15,10,13.20
2013,04,16,15,11,13.10
2013,04,16,15,12,13.10
2013,04,16,15,13,13.10
2013,04,16,15,14,13.10
2013,04,16,15,15,13.10
2013,04,16,15,16,13.10
2013,04,16,15,17,13.10
2013,04,16,15,18,13.10
2013,04,16,15,19,13.10
2013,04,16,15,20,13.10
2013,04,16,15,21,13.10
2013,04,16,15,22,13.20
2013,04,16,15,23,13.30
2013,04,16,15,24,13.40
2013,04,16,15,25,13.30
2013,04,16,15,26,13.20
2013,04,16,15,27,13.10
2013,04,16,15,28,13.20
2013,04,16,15,29,13.30
2013,04,16,15,30,13.30
2013,04,16,15,31,13.30
2013,04,16,15,32,13.30
2013,04,16,15,33,13.30
2013,04,16,15,34,13.40
2013,04,16,15,35,13.50
2013,04,16,15,36,13.60
2013,04,16,15,37,13.70
2013,04,16,15,38,13.80
2013,04,16,15,39,13.80
2013,04,16,15,40,13.80
2013,04,16,15,41,13.90
2013,04,16,15,42,13.90
2013,04,16,15,43,13.90
2013,04,16,15,44,13.80
2013,04,16,15,45,13.90
2013,04,16,15,46,14.00
2013,04,16,15,47,14.00
2013,04,16,15,48,14.10
2013,04,16,15,49,14.10
2013,04,16,15,50,14.10
2013,04,16,15,51,14.00
2013,04,16,15,52,14.00
2013,04,16,15,53,14.00
2013,04,16,15,54,13.90
2013,04,16,15,55,13.90
2013,04,16,15,56,13.90
2013,04,16,15,57,13.80
2013,04,16,15,58,13.70
2013,04,16,15,59,13.70
2013,04,16,16,00,13.70
2013,04,16,16,01,13.70
2013,04,16,16,02,13.70
2013,04,16,16,03,13.70
2013,04,16,16,04,13.70
2013,04,16,16,05,13.70
2013,04,16,16,06,13.60
2013,04,16,16,07,13.50
2013,04,16,16,08,13.40
2013,04,16,16,09,13.40
2013,04,16,16,10,13.50
2013,04,16,16,11,13.60
2013,04,16,16,12,13.70
2013,04,16,16,13,13.80
2013,04,16,16,14,13.80
2013,04,16,16,15,13.70
2013,04,16,16,16,13.70
2013,04,16,16,17,13.60
2013,04,16,16,18,13.60
2013,04,16,16,19,13.50
2013,04,16,16,20,13.50
2013,04,16,16,21,13.70
2013,04,16,16,22,13.80
2013,04,16,16,23,13.80
2013,04,16,16,24,13.80
2013,04,16,16,25,13.70
2013,04,16,16,26,13.70
2013,04,16,16,27,13.70
2013,04,16,16,28,13.50
2013,04,16,16,29,13.40
2013,04,16,16,30,13.40
2013,04,16,16,31,13.40
2013,04,16,16,32,13.50
2013,04,16,16,33,13.60
2013,04,16,16,34,13.70
2013,04,16,16,35,13.80
2013,04,16,16,36,13.90
2013,04,16,16,37,13.90
2013,04,16,16,38,13.90
2013,04,16,16,39,13.80
2013,04,16,16,40,13.80
2013,04,16,16,41,13.80
2013,04,16,16,42,13.80
2013,04,16,16,43,13.70
2013,04,16,16,44,13.70
2013,04,16,16,45,13.70
2013,04,16,16,46,13.80
2013,04,16,16,47,13.80
2013,04,16,16,48,13.80
2013,04,16,16,49,13.80
2013,04,16,16,50,13.80
2013,04,16,16,51,13.80
2013,04,16,16,52,13.60
2013,04,16,16,53,13.60
2013,04,16,16,54,13.60
2013,04,16,16,55,13.70
2013,04,16,16,56,13.70
2013,04,16,16,57,13.80
2013,04,16,16,58,13.80
2013,04,16,16,59,13.80
2013,04,16,17,00,13.90
2013,04,16,17,01,13.80
2013,04,16,17,02,13.80
2013,04,16,17,03,13.80
2013,04,16,17,04,13.80
2013,04,16,17,05,13.80
2013,04,16,17,06,13.70
2013,04,16,17,07,13.50
2013,04,16,17,08,13.50
2013,04,16,17,09,13.50
2013,04,16,17,10,13.50
2013,04,16,17,11,13.60
2013,04,16,17,12,13.70
2013,04,16,17,13,13.80
2013,04,16,17,14,13.80
2013,04,16,17,15,13.90
2013,04,16,17,16,13.80
2013,04,16,17,17,13.60
2013,04,16,17,18,13.50
2013,04,16,17,19,13.40
2013,04,16,17,20,13.50
2013,04,16,17,21,13.50
2013,04,16,17,22,13.60
2013,04,16,17,23,13.60
2013,04,16,17,24,13.60
2013,04,16,17,25,13.60
2013,04,16,17,26,13.60
2013,04,16,17,27,13.70
2013,04,16,17,28,13.80
2013,04,16,17,29,13.80
2013,04,16,17,30,13.90
2013,04,16,17,31,13.90
2013,04,16,17,32,13.90
2013,04,16,17,33,13.90
2013,04,16,17,34,13.80
2013,04,16,17,35,13.80
2013,04,16,17,36,13.80
2013,04,16,17,37,13.80
2013,04,16,17,38,13.70
2013,04,16,17,39,13.70
2013,04,16,17,40,13.70
2013,04,16,17,41,13.70
2013,04,16,17,42,13.70
2013,04,16,17,43,13.70
2013,04,16,17,44,13.70
2013,04,16,17,45,13.70
2013,04,16,17,46,13.60
2013,04,16,17,47,13.60
2013,04,16,17,48,13.70